Location: Bridgewater
(44.3670°N, 64.5170°W)
Time: 12:06:46
(UTC-03:00)

Amateur Radio Satellites - All Passes

Search period start: 24 April 2017 11:36
Search period end: 25 April 2017 11:36
Location: Bridgewater, 44.3670°N, 64.5170°W

Satellite Date Start Highest point End Downlink Frequencies (MHz)
Time Altitude Azimuth
Oscar 11 24 Apr 11:43:22 11:45:49 15° 298° (WNW) 11:48:14 .
RS-15 24 Apr 11:45:47 11:56:43 35° 336° (NNW) 12:07:43 29.354- 29.394
NANOSAT C BR1 24 Apr 11:52:56 11:56:58 47° 72° (ENE) 12:01:01 145.865
TIGRISAT 24 Apr 11:53:38 11:56:06 15° 269° (W) 11:58:33 435.000
BUGSAT 1 24 Apr 12:03:20 12:06:19 19° 65° (ENE) 12:09:16 437.445
LO-87 24 Apr 12:03:42 12:07:07 41° 98° (E) 12:10:29 145.935 - 145.965
FO-29 24 Apr 12:13:09 12:17:48 21° 267° (W) 12:22:07 435.910
EO-79 24 Apr 12:18:42 12:22:56 82° 257° (WSW) 12:27:10 145.935-145.965
PCSat 24 Apr 12:23:37 12:29:04 68° 57° (ENE) 12:34:27 145.827
DUCHIFAT 1 24 Apr 12:24:06 12:28:18 86° 259° (WSW) 12:32:31 145.980
OBJECT BX 24 Apr 12:25:06 12:27:15 15° 295° (WNW) 12:29:25 145.990 - 145.960
Gurwin Techsat 1B 24 Apr 12:33:26 12:35:11 12° 55° (NE) 12:36:57 435.225
O/OREOS (USA 219) 24 Apr 12:36:48 12:40:56 32° 302° (WNW) 12:45:06 437.305
DELFI C3 24 Apr 12:37:59 12:39:04 11° 299° (WNW) 12:40:10 145.870
ESTCUBE 1 24 Apr 12:39:14 12:43:45 57° 101° (E) 12:48:12 437.505/2401.250
Oscar 19 24 Apr 12:51:05 12:55:16 26° 64° (ENE) 12:59:30 437.125/150
SPROUT 24 Apr 12:52:49 12:56:03 21° 93° (E) 12:59:15 437.525
50 SAT 24 Apr 12:57:32 12:58:52 12° 91° (E) 13:00:11 437.505
POLYITAN 1 24 Apr 12:57:46 13:01:30 30° 264° (W) 13:05:16 437.675
QB50P2 24 Apr 13:04:33 13:08:02 24° 265° (W) 13:11:30 145.880/145.840
VELOX 1 24 Apr 13:04:52 13:08:48 30° 96° (E) 13:12:40 145.980
Tancredo 1 24 Apr 13:09:31 13:11:58 20° 360° (N) 13:14:24 437.200
ISS 24 Apr 13:10:17 13:12:54 22° 357° (N) 13:15:33 437.550
AO-7 24 Apr 13:27:39 13:32:10 16° 43° (NE) 13:36:42 .
NANOSAT C BR1 24 Apr 13:30:19 13:32:56 16° 268° (W) 13:35:34 145.865
BUGSAT 1 24 Apr 13:37:29 13:41:25 40° 262° (W) 13:45:19 437.445
LO-87 24 Apr 13:38:16 13:40:13 14° 295° (WNW) 13:42:09 145.935 - 145.965
UKube-1 24 Apr 13:38:59 13:42:01 18° 93° (E) 13:45:03 .
AO-85 24 Apr 13:41:15 13:45:18 41° 119° (ESE) 13:49:08 145.980
YUBILEINY 24 Apr 13:57:40 13:59:09 10° 49° (NE) 14:00:39 435.215
RS-15 24 Apr 14:03:39 14:14:06 30° 11° (NNE) 14:24:21 29.354- 29.394
DX 1 24 Apr 14:05:27 14:09:42 50° 100° (E) 14:13:56 434.975-435.025
PCSat 24 Apr 14:08:11 14:11:54 19° 254° (WSW) 14:15:35 145.827
Gurwin Techsat 1B 24 Apr 14:08:55 14:14:12 73° 73° (ENE) 14:19:31 435.225
ITAMSAT 1 24 Apr 14:12:36 14:15:26 15° 57° (ENE) 14:18:16 435.822/435.867
BEESAT 3 24 Apr 14:14:18 14:16:43 16° 111° (ESE) 14:19:10 437.485
ESTCUBE 1 24 Apr 14:17:10 14:20:06 17° 298° (WNW) 14:23:01 437.505/2401.250
SPROUT 24 Apr 14:28:10 14:32:04 37° 290° (WNW) 14:35:57 437.525
50 SAT 24 Apr 14:28:42 14:32:04 44° 287° (WNW) 14:35:23 437.505
Oscar 19 24 Apr 14:29:26 14:34:20 44° 261° (W) 14:39:18 437.125/150
VELOX 1 24 Apr 14:41:22 14:45:11 28° 293° (WNW) 14:48:57 145.980
Tancredo 1 24 Apr 14:45:38 14:48:30 33° 20° (NNE) 14:51:22 437.200
ISS 24 Apr 14:47:04 14:50:02 31° 17° (NNE) 14:53:01 437.550
SO-50 24 Apr 14:50:54 14:54:00 18° 36° (NE) 14:57:06 436.795
BEESAT 24 Apr 15:06:39 15:09:10 14° 90° (E) 15:11:41 436.000
UKube-1 24 Apr 15:14:09 15:18:15 43° 290° (WNW) 15:22:20 .
AO-7 24 Apr 15:15:13 15:23:18 60° 64° (ENE) 15:31:24 .
AO-85 24 Apr 15:22:22 15:25:49 24° 316° (NW) 15:29:08 145.980
DX 1 24 Apr 15:42:35 15:45:31 18° 297° (WNW) 15:48:26 434.975-435.025
BEESAT 2 24 Apr 15:42:52 15:46:42 52° 120° (ESE) 15:50:38 435.950
ITUPSAT 1 24 Apr 15:44:06 15:48:23 32° 97° (E) 15:52:39 437.325
ITAMSAT 1 24 Apr 15:49:00 15:54:12 84° 257° (WSW) 15:59:25 435.822/435.867
BEESAT 3 24 Apr 15:50:02 15:53:53 52° 308° (NW) 15:57:50 437.485
YUBILEINY 24 Apr 15:50:06 15:58:34 50° 74° (ENE) 16:07:02 435.215
Gurwin Techsat 1B 24 Apr 15:51:39 15:54:42 15° 271° (W) 15:57:47 435.225
RS-15 24 Apr 16:18:00 16:30:08 56° 43° (NE) 16:41:43 29.354- 29.394
Tancredo 1 24 Apr 16:21:31 16:24:30 43° 218° (SW) 16:27:28 437.200
ISS 24 Apr 16:23:28 16:26:40 55° 216° (SW) 16:29:51 437.550
SO-50 24 Apr 16:30:31 16:35:03 82° 236° (SW) 16:39:32 436.795
DOVE 4 24 Apr 16:39:26 16:41:21 12° 57° (ENE) 16:43:15 437.250
BEESAT 24 Apr 16:42:40 16:47:25 68° 287° (WNW) 16:52:09 436.000
MOZHAYETS 4 24 Apr 16:58:54 17:03:33 88° 287° (WNW) 17:08:10
AO-7 24 Apr 17:09:13 17:16:27 33° 264° (W) 17:23:46 .
BEESAT 2 24 Apr 17:21:44 17:24:46 20° 319° (NW) 17:27:50 435.950
ITUPSAT 1 24 Apr 17:21:59 17:26:09 30° 294° (WNW) 17:30:17 437.325
XW-2D 24 Apr 17:24:16 17:25:57 13° 63° (ENE) 17:27:38 145.860 - 145.880
KKS-1 24 Apr 17:30:02 17:34:08 35° 97° (E) 17:38:11 437.445
XW-2B 24 Apr 17:30:41 17:32:46 14° 64° (ENE) 17:34:51 145.730 - 145.750
BEESAT 3 24 Apr 17:32:05 17:32:25 10° 329° (NNW) 17:32:44 437.485
ITAMSAT 1 24 Apr 17:33:19 17:34:25 11° 273° (W) 17:35:32 435.822/435.867
LilacSat-2 24 Apr 17:38:02 17:40:40 18° 66° (ENE) 17:43:19 437.200
XW-2C 24 Apr 17:41:45 17:44:27 19° 67° (ENE) 17:47:10 145.795 - 145.815
CUBESAT XI-V 24 Apr 17:43:00 17:47:35 48° 99° (E) 17:52:08 437.345
KAITUO 1B 24 Apr 17:45:58 17:48:24 17° 66° (ENE) 17:50:51 145.475/437.950
YUBILEINY 24 Apr 17:47:18 17:55:08 39° 275° (W) 18:03:01 435.215
XW-2F 24 Apr 18:08:19 18:11:44 36° 71° (ENE) 18:15:11 145.980 - 146.000
STARS 24 Apr 18:08:54 18:13:02 39° 98° (E) 18:17:07 437.465
DOVE 4 24 Apr 18:12:51 18:18:09 76° 75° (ENE) 18:23:24 437.250
CUTE-I 24 Apr 18:17:54 18:23:05 54° 70° (ENE) 18:28:17 437.470
NUDT-PHONESAT 24 Apr 18:27:20 18:30:53 50° 73° (ENE) 18:34:27 437.300
RS-15 24 Apr 18:31:02 18:42:40 53° 248° (WSW) 18:53:45 29.354- 29.394
MOZHAYETS 4 24 Apr 18:38:36 18:39:58 11° 302° (WNW) 18:41:20
XW-2D 24 Apr 18:56:03 18:59:42 52° 260° (W) 19:03:23 145.860 - 145.880
HO-68 24 Apr 18:56:22 19:02:56 41° 62° (ENE) 19:09:30 435.675
CUTE 1.7 + AOD 2 24 Apr 19:03:00 19:06:21 23° 67° (ENE) 19:09:44 437.475
XW-2B 24 Apr 19:03:00 19:06:35 44° 261° (W) 19:10:13 145.730 - 145.750
KKS-1 24 Apr 19:06:55 19:10:31 25° 295° (WNW) 19:14:06 437.445
LilacSat-2 24 Apr 19:11:17 19:14:43 34° 263° (W) 19:18:11 437.200
XW-2C 24 Apr 19:15:05 19:18:27 32° 263° (W) 19:21:50 145.795 - 145.815
XW-2A 24 Apr 19:16:34 19:19:29 28° 71° (ENE) 19:22:25 145.665 - 145.685
KAITUO 1B 24 Apr 19:18:46 19:22:09 35° 262° (W) 19:25:36 145.475/437.950
CUBESAT XI-V 24 Apr 19:21:08 19:24:37 21° 296° (WNW) 19:28:05 437.345
SEEDS 24 Apr 19:27:29 19:31:03 28° 68° (ENE) 19:34:38 437.485
O/OREOS (USA 219) 24 Apr 19:28:17 19:29:42 11° 45° (NE) 19:31:06 437.305
UWE-3 24 Apr 19:35:57 19:38:34 16° 64° (ENE) 19:41:09 435.000/436.395/437.385
CUBEBUG 2 24 Apr 19:42:35 19:46:24 30° 69° (ENE) 19:50:07 437.445
XW-2F 24 Apr 19:43:38 19:46:02 16° 268° (W) 19:48:26 145.980 - 146.000
STARS 24 Apr 19:45:48 19:49:07 22° 296° (WNW) 19:52:26 437.465
DOVE 4 24 Apr 19:53:18 19:56:19 15° 272° (W) 19:59:21 437.250
CUTE-I 24 Apr 19:59:24 20:03:27 21° 268° (W) 20:07:29 437.470
M-CUBED/EXP-1 PRIME 24 Apr 20:03:18 20:06:20 19° 96° (E) 20:09:13 437.505
NUDT-PHONESAT 24 Apr 20:03:48 20:05:06 12° 270° (W) 20:06:24 437.300
STRAND 1 24 Apr 20:33:50 20:38:52 55° 101° (E) 20:43:52 437.568
NO-84 24 Apr 20:34:51 20:37:59 27° 133° (SE) 20:40:54 435.350 FM
ZACube-1 24 Apr 20:35:24 20:39:17 37° 71° (ENE) 20:43:08 437.345
CUTE 1.7 + AOD 2 24 Apr 20:38:13 20:42:01 33° 264° (W) 20:45:52 437.475
AAUSAT CUBESAT 2 24 Apr 20:41:58 20:46:06 87° 77° (ENE) 20:50:17 437.432
AO-73 24 Apr 20:43:39 20:47:35 41° 71° (ENE) 20:51:30 145.935
HO-68 24 Apr 20:43:52 20:50:35 43° 262° (W) 20:57:22 435.675
XW-2A 24 Apr 20:50:06 20:52:18 16° 267° (W) 20:54:31 145.665 - 145.685
Oscar 11 24 Apr 21:01:50 21:06:02 55° 73° (ENE) 21:10:15 .
SEEDS 24 Apr 21:03:06 21:06:40 27° 265° (W) 21:10:17 437.485
O/OREOS (USA 219) 24 Apr 21:05:22 21:09:59 75° 66° (ENE) 21:14:31 437.305
UWE-3 24 Apr 21:10:28 21:14:39 51° 260° (W) 21:18:47 435.000/436.395/437.385
CUBEBUG 2 24 Apr 21:19:16 21:23:00 27° 265° (W) 21:26:39 437.445
OBJECT BX 24 Apr 21:30:06 21:32:59 23° 68° (ENE) 21:35:53 145.990 - 145.960
M-CUBED/EXP-1 PRIME 24 Apr 21:36:55 21:41:00 41° 296° (WNW) 21:44:46 437.505
DELFI C3 24 Apr 21:47:27 21:51:18 50° 73° (ENE) 21:55:11 145.870
AO-85 24 Apr 22:10:28 22:14:22 55° 53° (NE) 22:18:23 145.980
NO-84 24 Apr 22:12:09 22:15:27 39° 328° (NNW) 22:18:30 435.350 FM
ZACube-1 24 Apr 22:12:35 22:15:41 20° 267° (W) 22:18:47 437.345
STRAND 1 24 Apr 22:13:54 22:17:39 21° 298° (WNW) 22:21:22 437.568
AO-73 24 Apr 22:21:09 22:24:01 18° 268° (W) 22:26:52 145.935
BEESAT 2 24 Apr 22:23:31 22:24:14 10° 31° (NNE) 22:24:58 435.950
UNISAT 6 24 Apr 22:25:50 22:28:41 17° 92° (E) 22:31:33 437.425
BEESAT 3 24 Apr 22:28:18 22:31:21 20° 41° (NE) 22:34:22 437.485
PRISM 24 Apr 22:34:51 22:38:38 32° 97° (E) 22:42:22 437.425
Oscar 11 24 Apr 22:40:11 22:42:31 14° 270° (W) 22:44:52 .
LO-87 24 Apr 22:41:35 22:44:28 22° 68° (ENE) 22:47:21 145.935 - 145.965
O/OREOS (USA 219) 24 Apr 22:47:00 22:48:42 12° 263° (W) 22:50:23 437.305
OBJECT BX 24 Apr 23:03:32 23:06:34 25° 265° (W) 23:09:37 145.990 - 145.960
FO-29 24 Apr 23:18:04 23:23:01 43° 99° (E) 23:28:10 435.910
DELFI C3 24 Apr 23:24:19 23:26:22 14° 270° (W) 23:28:27 145.870
ESTCUBE 1 24 Apr 23:39:58 23:44:24 62° 73° (ENE) 23:48:53 437.505/2401.250
TIGRISAT 24 Apr 23:40:50 23:45:06 82° 287° (WNW) 23:49:24 435.000
SPROUT 24 Apr 23:47:49 23:51:00 21° 65° (ENE) 23:54:11 437.525
NO-84 24 Apr 23:51:54 23:53:38 14° 348° (NNW) 23:55:19 435.350 FM
AO-85 24 Apr 23:52:02 23:54:21 15° 248° (WSW) 23:56:43 145.980
BEESAT 2 24 Apr 23:58:55 00:02:55 53° 52° (NE) 00:06:52 435.950
UNISAT 6 25 Apr 00:01:33 00:05:38 45° 289° (WNW) 00:09:45 437.425
EO-79 25 Apr 00:03:06 00:05:21 14° 91° (E) 00:07:36 145.935-145.965
VELOX 1 25 Apr 00:03:25 00:07:24 33° 68° (ENE) 00:11:25 145.980
BEESAT 3 25 Apr 00:05:17 00:09:14 53° 240° (WSW) 00:13:07 437.485
DUCHIFAT 1 25 Apr 00:08:04 00:10:00 13° 90° (E) 00:11:57 145.980
PRISM 25 Apr 00:10:25 00:13:45 23° 294° (WNW) 00:17:02 437.425
LO-87 25 Apr 00:14:45 00:17:49 25° 265° (W) 00:20:53 145.935 - 145.965
AIST 2D 25 Apr 00:32:49 00:36:17 58° 100° (E) 00:39:46 435.315
UKube-1 25 Apr 00:34:59 00:38:11 20° 64° (ENE) 00:41:23 .
POLYITAN 1 25 Apr 00:40:23 00:44:16 35° 98° (E) 00:48:07 437.675
QB50P2 25 Apr 00:46:46 00:50:49 45° 99° (E) 00:54:50 145.880/145.840
DX 1 25 Apr 01:02:07 01:06:23 53° 72° (ENE) 01:10:40 434.975-435.025
50 SAT 25 Apr 01:02:27 01:05:56 82° 76° (ENE) 01:09:27 437.505
FO-29 25 Apr 01:03:47 01:07:57 25° 296° (WNW) 01:12:13 435.910
NANOSAT C BR1 25 Apr 01:10:51 01:15:02 71° 103° (ESE) 01:19:11 145.865
BUGSAT 1 25 Apr 01:17:44 01:20:59 23° 95° (E) 01:24:13 437.445
ESTCUBE 1 25 Apr 01:19:15 01:21:38 14° 270° (W) 01:24:00 437.505/2401.250
SPROUT 25 Apr 01:22:38 01:26:39 39° 262° (W) 01:30:42 437.525
NO-84 25 Apr 01:30:40 01:32:12 13° 10° (N) 01:33:43 435.350 FM
EO-79 25 Apr 01:37:20 01:41:26 54° 287° (WNW) 01:45:31 145.935-145.965
BEESAT 2 25 Apr 01:37:44 01:40:17 16° 249° (WSW) 01:42:49 435.950
VELOX 1 25 Apr 01:40:09 01:43:52 26° 265° (W) 01:47:37 145.980
DUCHIFAT 1 25 Apr 01:41:57 01:46:03 58° 287° (WNW) 01:50:08 145.980
AIST 2D 25 Apr 02:08:25 02:09:02 10° 297° (WNW) 02:09:39 435.315
UKube-1 25 Apr 02:09:49 02:13:55 41° 261° (W) 02:18:03 .
BEESAT 25 Apr 02:14:14 02:17:45 21° 63° (ENE) 02:21:17 436.000
POLYITAN 1 25 Apr 02:16:37 02:19:51 22° 294° (WNW) 02:23:05 437.675
QB50P2 25 Apr 02:23:25 02:26:16 18° 296° (WNW) 02:29:07 145.880/145.840
Gurwin Techsat 1B 25 Apr 02:24:01 02:28:23 25° 94° (E) 02:32:42 435.225
MOZHAYETS 4 25 Apr 02:28:01 02:30:04 13° 60° (ENE) 02:32:08
Oscar 19 25 Apr 02:38:55 02:44:04 57° 101° (E) 02:49:10 437.125/150
DX 1 25 Apr 02:40:13 02:42:53 16° 269° (W) 02:45:32 434.975-435.025
NANOSAT C BR1 25 Apr 02:48:29 02:50:11 12° 299° (WNW) 02:51:52 145.865
ITUPSAT 1 25 Apr 02:52:11 02:56:42 45° 70° (ENE) 03:01:14 437.325
BUGSAT 1 25 Apr 02:52:52 02:56:21 29° 292° (WNW) 02:59:50 437.445
PCSat 25 Apr 03:06:51 03:11:57 44° 113° (ESE) 03:17:05 145.827
NO-84 25 Apr 03:07:35 03:10:24 40° 32° (NNE) 03:13:06 435.350 FM
AO-7 25 Apr 03:16:58 03:21:30 15° 87° (E) 03:26:01 .
BEESAT 25 Apr 03:50:37 03:55:12 48° 261° (W) 03:59:49 436.000
ITAMSAT 1 25 Apr 04:00:33 04:05:03 29° 95° (E) 04:09:32 435.822/435.867
MOZHAYETS 4 25 Apr 04:02:03 04:06:36 78° 257° (WSW) 04:11:11
Gurwin Techsat 1B 25 Apr 04:03:27 04:08:31 45° 291° (WNW) 04:13:32 435.225
Oscar 19 25 Apr 04:19:07 04:22:58 21° 298° (WNW) 04:26:48 437.125/150
KKS-1 25 Apr 04:29:19 04:33:31 40° 69° (ENE) 04:37:43 437.445
ITUPSAT 1 25 Apr 04:31:09 04:34:44 21° 267° (W) 04:38:20 437.325
NO-84 25 Apr 04:45:40 04:47:39 17° 230° (SW) 04:49:38 435.350 FM
CUBESAT XI-V 25 Apr 04:47:32 04:52:04 56° 72° (ENE) 04:56:39 437.345
PCSat 25 Apr 04:50:36 04:55:28 33° 313° (NW) 05:00:22 145.827
YUBILEINY 25 Apr 04:52:54 05:01:14 54° 90° (E) 05:09:36 435.215
STARS 25 Apr 05:06:43 05:10:53 43° 70° (ENE) 05:15:05 437.465
AO-7 25 Apr 05:07:14 05:15:35 76° 107° (ESE) 05:23:55 .
ITAMSAT 1 25 Apr 05:39:49 05:44:34 37° 293° (WNW) 05:49:17 435.822/435.867
KKS-1 25 Apr 06:06:47 06:10:12 21° 266° (W) 06:13:38 437.445
DOVE 4 25 Apr 06:11:50 06:14:55 17° 89° (E) 06:17:52 437.250
STRAND 1 25 Apr 06:15:23 06:17:53 14° 57° (ENE) 06:20:25 437.568
CUBESAT XI-V 25 Apr 06:26:52 06:29:47 16° 270° (W) 06:32:44 437.345
XW-2D 25 Apr 06:28:06 06:30:08 14° 91° (E) 06:32:10 145.860 - 145.880
CUTE-I 25 Apr 06:34:11 06:37:49 18° 91° (E) 06:41:25 437.470
XW-2B 25 Apr 06:34:39 06:37:04 16° 92° (E) 06:39:28 145.730 - 145.750
LilacSat-2 25 Apr 06:42:55 06:45:54 21° 94° (E) 06:48:52 437.200
STARS 25 Apr 06:44:16 06:47:26 19° 267° (W) 06:50:36 437.465
RS-15 25 Apr 06:45:57 06:54:57 26° 100° (E) 07:04:06 29.354- 29.394
XW-2C 25 Apr 06:45:59 06:48:59 22° 94° (E) 06:52:00 145.795 - 145.815
SO-50 25 Apr 06:47:02 06:50:31 21° 113° (ESE) 06:53:59 436.795
KAITUO 1B 25 Apr 06:48:38 06:51:20 19° 93° (E) 06:54:02 145.475/437.950
M-CUBED/EXP-1 PRIME 25 Apr 06:49:07 06:53:18 35° 63° (ENE) 06:57:32 437.505
YUBILEINY 25 Apr 06:50:32 06:58:21 36° 291° (WNW) 07:06:15 435.215
AO-7 25 Apr 07:00:53 07:07:37 29° 307° (NW) 07:14:22 .
XW-2F 25 Apr 07:12:29 07:16:06 42° 98° (E) 07:19:44 145.980 - 146.000
NUDT-PHONESAT 25 Apr 07:29:44 07:33:24 56° 100° (E) 07:37:04 437.300
DOVE 4 25 Apr 07:48:25 07:53:00 50° 288° (WNW) 07:57:17 437.250
STRAND 1 25 Apr 07:51:13 07:56:20 88° 250° (WSW) 08:01:29 437.568
XW-2D 25 Apr 08:00:55 08:04:33 44° 288° (WNW) 08:08:12 145.860 - 145.880
XW-2B 25 Apr 08:07:52 08:11:25 38° 288° (WNW) 08:14:59 145.730 - 145.750
XW-2A 25 Apr 08:09:19 08:12:05 23° 96° (E) 08:14:51 145.665 - 145.685
HO-68 25 Apr 08:09:20 08:15:51 35° 96° (E) 08:22:19 435.675
CUTE-I 25 Apr 08:13:02 08:18:18 62° 288° (WNW) 08:23:30 437.470
LilacSat-2 25 Apr 08:16:50 08:20:11 29° 290° (WNW) 08:23:33 437.200
XW-2C 25 Apr 08:19:54 08:23:12 28° 290° (WNW) 08:26:28 145.795 - 145.815
CUTE 1.7 + AOD 2 25 Apr 08:20:55 08:24:54 36° 97° (E) 08:28:51 437.475
KAITUO 1B 25 Apr 08:22:02 08:25:26 32° 289° (WNW) 08:28:49 145.475/437.950
M-CUBED/EXP-1 PRIME 25 Apr 08:23:42 08:27:42 29° 260° (W) 08:31:47 437.505
AAUSAT CUBESAT 2 25 Apr 08:24:12 08:25:59 12° 89° (E) 08:27:45 437.432
SO-50 25 Apr 08:26:11 08:30:40 50° 310° (NW) 08:35:08 436.795
SEEDS 25 Apr 08:44:24 08:48:28 42° 98° (E) 08:52:31 437.485
XW-2F 25 Apr 08:47:38 08:49:55 16° 295° (WNW) 08:52:12 145.980 - 146.000
RS-15 25 Apr 08:53:37 09:05:44 88° 123° (ESE) 09:18:12 29.354- 29.394
Tancredo 1 25 Apr 08:57:10 08:59:23 18° 135° (SE) 09:01:36 437.200
UWE-3 25 Apr 08:58:23 09:01:53 25° 95° (E) 09:05:25 435.000/436.395/437.385
ISS 25 Apr 09:05:06 09:07:23 18° 135° (SE) 09:09:39 437.550
NUDT-PHONESAT 25 Apr 09:05:26 09:06:51 12° 297° (WNW) 09:08:16 437.300
CUBEBUG 2 25 Apr 09:07:21 09:11:25 52° 100° (E) 09:15:30 437.445
TIGRISAT 25 Apr 09:07:23 09:09:00 12° 60° (ENE) 09:10:35 435.000
PRISM 25 Apr 09:25:30 09:29:07 30° 68° (ENE) 09:32:46 437.425
UNISAT 6 25 Apr 09:26:18 09:29:27 20° 65° (ENE) 09:32:34 437.425
FO-29 25 Apr 09:32:40 09:37:37 26° 64° (ENE) 09:42:10 435.910
STRAND 1 25 Apr 09:34:52 09:36:14 11° 273° (W) 09:37:36 437.568
XW-2A 25 Apr 09:42:14 09:44:44 20° 292° (WNW) 09:47:14 145.665 - 145.685
HO-68 25 Apr 09:56:52 10:03:44 49° 295° (WNW) 10:10:34 435.675
CUTE 1.7 + AOD 2 25 Apr 09:57:11 10:00:32 23° 294° (WNW) 10:03:52 437.475
ZACube-1 25 Apr 09:57:27 10:01:37 66° 101° (E) 10:05:52 437.345
AAUSAT CUBESAT 2 25 Apr 09:57:41 10:01:50 62° 286° (WNW) 10:05:58 437.432
AO-73 25 Apr 10:05:22 10:09:34 73° 102° (ESE) 10:13:50 145.935
SO-50 25 Apr 10:10:30 10:12:12 12° 331° (NNW) 10:13:53 436.795
PCSat 25 Apr 10:10:59 10:13:23 13° 31° (NNE) 10:15:48 145.827
SEEDS 25 Apr 10:20:49 10:23:52 19° 295° (WNW) 10:26:54 437.485
Oscar 11 25 Apr 10:23:08 10:27:30 87° 280° (W) 10:31:51 .
OBJECT BX 25 Apr 10:30:25 10:33:23 23° 95° (E) 10:36:22 145.990 - 145.960
Tancredo 1 25 Apr 10:31:57 10:35:01 62° 332° (NNW) 10:38:06 437.200
UWE-3 25 Apr 10:34:43 10:38:20 29° 291° (WNW) 10:41:59 435.000/436.395/437.385
ISS 25 Apr 10:40:18 10:43:32 67° 332° (NNW) 10:46:47 437.550
TIGRISAT 25 Apr 10:40:42 10:45:05 78° 256° (WSW) 10:49:26 435.000
CUBEBUG 2 25 Apr 10:45:12 10:47:39 15° 297° (WNW) 10:50:06 437.445
DELFI C3 25 Apr 10:57:19 11:01:19 67° 101° (E) 11:05:18 145.870
EO-79 25 Apr 10:57:23 10:59:40 14° 62° (ENE) 11:01:56 145.935-145.965
PRISM 25 Apr 11:00:56 11:04:23 25° 265° (W) 11:07:52 437.425
UNISAT 6 25 Apr 11:01:41 11:05:53 43° 261° (W) 11:10:02 437.425
DUCHIFAT 1 25 Apr 11:01:48 11:03:47 13° 61° (ENE) 11:05:44 145.980
RS-15 25 Apr 11:08:39 11:19:55 40° 330° (NNW) 11:31:18 29.354- 29.394
AIST 2D 25 Apr 11:08:58 11:11:53 26° 70° (ENE) 11:14:50 435.315
FO-29 25 Apr 11:16:11 11:22:27 54° 259° (W) 11:28:04 435.910
O/OREOS (USA 219) 25 Apr 11:18:56 11:23:29 64° 110° (ESE) 11:28:03 437.305
ESTCUBE 1 25 Apr 11:32:53 11:34:30 12° 88° (E) 11:36:08 437.505/2401.250
